884  
FPUS82 KCHS 250512  
OPUCHS  
 
TEST   
..KCHS/KSAV GATEWAY OBSERVATIONS
 
TEST  
NATIONAL WEATHER SERVICE CHARLESTON SC  
100 AM EDT FRI MAY 25 2018  
 
NOTE: "FAIR" INDICATES FEW OR NO CLOUDS BELOW 12,000 FEET WITH NO  
SIGNIFICANT WEATHER AND/OR OBSTRUCTIONS TO VISIBILITY.  
 
SCZ050-WAZ558-NCZ071-TXZ119-213-PAZ071-DCZ001-FLZ074-172-MI076-  
NYZ176-178-MAZ016-IL014-TNZ027-NJZ106-GAZ044-MD014-250600-  
   
..GATEWAY OBSERVATIONS FOR CHARLESTON INTERNATIONAL
 
 
 
CITY SKY/WX TMP DP RH WIND PRES REMARKS  
CHAS AIRPORT MOCLDY 73 71 93 CALM 30.10F  
SEATTLE PTCLDY 59 52 77 W6 30.03R  
CHARLOTTE MOCLDY 71 69 93 SE8 30.15F  
DALLAS DFW PTCLDY 80 68 66 SE8 29.99S  
DALLAS LOVE CLEAR 82 68 62 SE9 30.00S  
PHILLADELPHIA FAIR 65 55 70 SW7 30.12F  
WASH NATIONAL FAIR 68 60 75 S6 30.14S  
BALTIMORE FAIR 65 50 58 SW5 30.12F  
MIAMI CLOUDY 77 75 93 E6 30.04F  
DETROIT FAIR 66 51 58 S3 30.08F  
NEWARK FAIR 68 46 45 SW9 30.09S  
LAGUARDIA FAIR 71 45 39 SW8 30.08S  
J F K FAIR 63 49 60 SW8 30.11S  
BOSTON LOGAN FAIR 55 49 80 SW17 30.03F  
FT. LAUDERDALE CLOUDY 79 75 89 SE10 30.03F  
CHICAGO O'HARE FAIR 71 54 54 S5 30.02S  
CHICAGO MIDWAY FAIR 74 54 49 S6 30.02F  
HOUSTON BUSH FAIR 74 71 91 CALM 30.02F  
HOUSTON HOBBY FAIR 75 73 93 CALM 30.02S  
NASHVILLE FAIR 73 65 75 CALM 30.06F  
ATLANTA CLOUDY 72 68 87 E8 30.11S  
 

 
 
GAZ044-118-TXZ119-213-NCZ071-DCZ001-MDZ014-506-PAZ021-071-NJZ106-  
NYZ176-178-MAZ106-OHZ011-021-055-MIZ076-KYZ091-ILZ014-INZ047-  
MNZ060-ONZ431-250600-  
   
..GATEWAY OBSERVATIONS FOR SAVANNAH INTERNATIONAL
 
 
 
CITY SKY/WX TMP DP RH WIND PRES REMARKS  
SAVANNAH ARPT FAIR 75 74 96 E5 30.10F  
ATLANTA CLOUDY 72 68 87 E8 30.11S  
CHARLOTTE MOCLDY 71 69 93 SE8 30.15F  
DALLAS DFW PTCLDY 80 68 66 SE8 29.99S  
HOUSTON BUSH FAIR 74 71 91 CALM 30.02F  
WASH NATIONAL FAIR 68 60 75 S6 30.14S  
WASH DULLES FAIR 61 56 83 S3 30.14S  
BALTIMORE FAIR 65 50 58 SW5 30.12F  
PHILADELPHIA FAIR 65 55 70 SW7 30.12F  
NEWARK FAIR 68 46 45 SW9 30.09S  
LAGUARDIA FAIR 71 45 39 SW8 30.08S  
J F K FAIR 63 49 60 SW8 30.11S  
BOSTON FAIR 55 49 80 SW17 30.03F  
PITTSBURG FAIR 61 53 75 CALM 30.10F  
AKRON FAIR 64 49 57 CALM 30.11S  
CLEVELAND FAIR 60 51 72 S3 30.11S  
CINCINNATI FAIR 66 55 67 CALM 30.09R  
COLUMBUS FAIR 63 56 79 MISG 30.08S  
DETROIT FAIR 66 51 58 S3 30.08F  
CHICAGO O'HARE FAIR 71 54 54 S5 30.02S  
MINNEAPOLIS CLOUDY 69 65 86 SE13 29.89S  
INDIANAPOLIS FAIR 72 53 51 E3 30.08R  
TORONTO CANADA PTCLDY 63 48 59 W8 30.02F  
 

 
 
 
CLICK HERE TO GO TO PREVIOUS BULLETINS.

The Nexlab SC Page
The Nexlab GA Page Main Text Page